Voltar ao catálogo

COSMOS 1520

GLONASS

AtivoNavegaçãoMEO
NORAD 14591·PAYLOAD·🇷🇺 Russia

Lançado Dec 29, 1983 de Baikonur Cosmodrome

Loading…

Próximas Passagens (próximas 24 horas)

TLE

EnvelhecendoSource: Space-Track

Época: Aug 29, 2026, 04:42 UTC

1 14591U 83127B   26241.19611859 -.00000043  00000-0  00000+0 0  9993
2 14591  66.3798 326.6297 0024578 170.6014 242.9286  2.13103109272511

Acompanhe COSMOS 1520 em tempo real com AllMySat

Download on the App Store